Location: Zagreb
(45.8000°N, 16.0000°E)
Time: 17:52:31
(UTC+01:00)

ISS - Visible Passes

Search period start: 26 February 2017 00:00
Search period end: 08 March 2017 00:00
Orbit: 399 x 408 km, 51.6° (Epoch: 26 February)

Date Brightness Start Highest point End Pass type
(mag) Time Alt. Az. Time Alt. Az. Time Alt. Az.
01 Mar -0.6 05:56:05 10° S 05:58:32 19° SE 06:00:59 10° E visible
02 Mar -0.2 05:05:15 10° SSE 05:06:12 11° SE 05:07:11 10° ESE visible
03 Mar -2.0 05:46:32 10° SW 05:49:38 40° SE 05:52:45 10° ENE visible
04 Mar -1.2 04:55:01 13° S 04:57:12 23° SE 04:59:53 10° E visible
05 Mar -0.5 04:04:55 13° SE 04:04:55 13° SE 04:06:29 10° ESE visible
05 Mar -3.3 05:37:34 10° WSW 05:40:49 83° SSE 05:44:07 10° ENE visible
06 Mar -2.6 04:47:18 35° SSW 04:48:15 48° SE 04:51:28 10° ENE visible
07 Mar -0.9 03:56:57 21° ESE 03:56:57 21° ESE 03:58:37 10° E visible
07 Mar -3.0 05:29:35 16° W 05:32:04 55° NNW 05:35:20 10° ENE visible
